[[[{"header":{"parameterUnit":"kt","parameterCategory":2,"dx":1,"dy":1,"la1":30.253999710083008,"la2":30.299108505249023,"lo1":-89.0895004272461,"lo2":-89.04439544677734,"nx":28,"ny":28,"refTime":"2022-09-23T21:00:00:Z","depth":0,"parameterNumber":1,"parameterNumberName":"U-component_of_WINDS"},"data":[-7.3302,-7.3412,-7.3367,-7.3474,-7.3452,-7.3515,-7.3524,-7.353,-7.3524,-7.3597,-7.3631,-7.3598,-7.3573,-7.3603,-7.3637,-7.3621,-7.3635,-7.371,-7.3677,-7.3388,-7.3344,-7.3303,-7.327,-7.3717,-7.3717,-7.3978,-7.3981,-7.3983,-7.31,-7.3079,-7.3123,-7.3132,-7.3169,-7.3071,-7.3072,-7.3107,-7.3168,-7.3162,-7.3192,-7.3252,-7.3294,-7.3241,-7.3273,-7.3324,-7.3277,-7.3336,-7.3326,-7.3322,-7.3015,-7.2981,-7.3373,-7.3373,-7.3373,-7.3373,-7.3373,-7.3373,-7.2719,-7.2788,-7.2765,-7.281,-7.2803,-7.281,-7.2867,-7.2822,-7.2863,-7.2888,-7.2826,-7.2893,-7.2876,-7.2889,-7.2883,-7.2934,-7.2858,-7.2906,-7.2917,-7.2928,-7.2946,-7.2568,-7.2938,-7.2937,-7.2935,-7.2934,-7.2933,0,-7.2422,-7.2379,-7.2414,-7.2438,-7.2468,-7.2482,-7.2485,-7.252,-7.2408,-7.2447,-7.2498,-7.252,-7.2564,-7.2606,-7.2624,-7.2605,-7.2499,-7.2487,-7.2518,-7.2543,-7.2567,-7.2549,-7.2043,-7.2473,-7.2469,-7.2466,-7.2463,-7.2462,-7.2027,-7.2114,-7.2066,-7.2098,-7.2086,-7.2141,-7.2162,-7.2056,-7.2084,-7.2073,-7.2139,-7.2181,-7.2206,-7.2299,-7.2239,-7.2272,-7.2218,-7.2388,-7.2222,-7.2248,-7.2212,-7.2205,-7.2211,-7.2418,-7.2424,-7.2428,-7.2432,0,-7.1809,-7.1727,-7.1845,-7.1786,-7.1774,-7.1871,-7.182,-7.1885,-7.183,-7.1911,-7.1924,-7.1838,-7.189,-7.1802,-7.1845,-7.1797,-7.1955,-7.1907,-7.1959,-7.1942,-7.208,-7.2065,-7.2551,-7.2607,-7.2151,-7.2156,-7.216,0,-7.1435,-7.1552,-7.1422,-7.1494,-7.1622,-7.1508,-7.1638,-7.1602,-7.1581,-7.1643,-7.1511,-7.1573,-7.145,-7.1501,-7.143,-7.1544,-7.1553,-7.1521,-7.1499,-7.1528,-7.1531,-7.1533,-7.1508,-7.1454,-7.1452,-7.145,-7.1448,0,-7.1093,-7.1162,-7.128,-7.1281,-7.1227,-7.1286,-7.1267,-7.124,-7.1262,-7.1277,-7.1289,-7.1316,-7.1329,-7.1353,-7.126,-7.1151,-7.1399,-7.1229,-7.1364,-7.1367,-7.1416,-7.1412,-7.1873,-7.1445,-7.1444,-7.1443,-7.1443,0,-7.0773,-7.0788,-7.0973,-7.0923,-7.0944,-7.1024,-7.1038,-7.1085,-7.1067,-7.1026,-7.1037,-7.0933,-7.1028,-7.0865,-7.0993,-7.0875,-7.0897,-7.0875,-7.0883,-7.0877,-7.0695,-7.0958,-7.1412,-7.1452,-7.0886,-7.0881,-7.0877,0,-7.0402,-7.0565,-7.0463,-7.0642,-7.0702,-7.0543,-7.063,-7.0616,-7.0568,-7.0613,-7.0559,-7.0612,-7.0472,-7.0474,-7.0551,-7.0496,-7.065,-7.0474,-7.0537,-7.0541,-7.0539,-7.0958,-7.1042,-7.1324,-7.0817,-7.0823,-7.0828,0,-7.0101,-7.0029,-7.0068,-7.0061,-7.0023,-7.0073,-7.0174,-7.0198,-7.0233,-7.0234,-7.0311,-7.0387,-7.0281,-7.0288,-7.0205,-7.0289,-7.0543,-7.0164,-7.0161,-7.023,-7.078,-7.086,-7.0908,-7.0469,-7.0476,-7.0482,-7.078,0,-6.9626,-6.9695,-6.9797,-6.9788,-6.9813,-6.992,-6.9817,-6.9857,-6.9773,-6.9715,-6.9831,-6.9795,-6.9819,-6.9851,-6.9769,-6.999,-6.9937,-6.9824,-6.965,-6.993,-7.0024,-7.0064,-6.9518,-6.9512,-6.9508,-6.9504,0,0,-6.9287,-6.9381,-6.9262,-6.9351,-6.9363,-6.9191,-6.9313,-6.9305,-6.9294,-6.9306,-6.921,-6.9308,-6.9281,-6.9431,-6.9511,-6.9523,-6.9551,-6.9456,-6.9799,-6.9833,-6.9863,-6.9967,-7.001,-6.9495,-6.9493,-6.9492,-6.949,0,-6.9088,-6.9064,-6.9186,-6.9172,-6.9145,-6.9077,-6.9108,-6.905,-6.9018,-6.913,-6.8983,-6.904,-6.9121,-6.911,-6.9115,-6.9439,-6.9321,-6.9456,-6.9661,-6.9755,-6.9795,-6.983,-6.994,-6.9982,-6.9479,-6.9479,-6.948,0,-6.8767,-6.8724,-6.8771,-6.879,-6.877,-6.8837,-6.8632,-6.8712,-6.876,-6.8562,-6.8674,-6.864,-6.8617,-6.8774,-6.8841,-6.8754,-6.9118,-6.8986,-6.9013,-6.9015,-6.9101,-6.915,-6.9192,-6.8627,-6.8625,-6.8622,0,0,-6.8609,-6.8671,-6.8586,-6.8738,-6.8737,-6.8635,-6.866,-6.8575,-6.8557,-6.855,-6.85,-6.8488,-6.8533,-6.8565,-6.8601,-6.879,-6.8773,-6.8885,-6.8925,-6.8958,-6.8979,-6.9074,-6.9122,-6.8613,-6.8613,-6.8612,0,0,-6.8532,-6.8438,-6.8354,-6.8517,-6.8505,-6.843,-6.8527,-6.8422,-6.8443,-6.8418,-6.8279,-6.8269,-6.8414,-6.8385,-6.8268,-6.8537,-6.8369,-6.8394,-6.8549,-6.8598,-6.8637,-6.8638,-6.8048,0,0,0,0,0,-6.8271,-6.845,-6.8375,-6.8386,-6.8406,-6.8473,-6.8475,-6.8362,-6.8245,-6.8325,-6.8267,-6.814,-6.8293,-6.8186,-6.82,-6.8329,-6.8488,-6.851,-6.8531,-6.8774,-6.8826,-6.8871,0,0,0,0,0,0,-6.8274,-6.8288,-6.8369,-6.8304,-6.8307,-6.8466,-6.8242,-6.8216,-6.8233,-6.8208,-6.8155,-6.8138,-6.8044,-6.8171,-6.8186,-6.831,-6.8042,-6.8497,-6.8516,-6.8533,-6.8792,-6.8835,-6.8872,0,0,0,0,0,-6.8276,-6.8287,-6.8349,-6.83,-6.8303,-6.8197,-6.8234,-6.821,-6.8222,-6.813,-6.8108,-6.8135,-6.8051,-6.8055,-6.8179,-6.8306,-6.8032,-6.8038,-6.8509,-6.8524,-6.8537,-6.8813,0,0,0,0,0,0,-6.8278,-6.8267,-6.8347,-6.8344,-6.8222,-6.8186,-6.8176,-6.8207,-6.814,-6.8121,-6.8102,-6.8082,-6.8058,-6.8059,-6.8064,-6.8311,-6.8023,-6.8029,-6.8033,-6.852,-6.8532,-6.8542,0,0,0,0,0,0,-6.826,-6.8266,-6.8345,-6.8253,-6.8238,-6.8176,-6.8167,-6.8257,-6.8142,-6.8115,-6.8097,-6.8094,-6.8052,-6.8064,-6.8066,-6.821,-6.8017,-6.8022,-6.8026,-6.8028,-6.853,-6.8539,0,0,0,0,0,0,-6.826,-6.8265,-6.8253,-6.8242,-6.8228,-6.8183,-6.8252,-6.828,-6.8063,-6.8121,-6.804,-6.803,-6.806,-6.806,-6.8069,-6.8213,-6.8211,-6.8017,-6.8021,-6.8023,-6.8025,0,0,0,0,0,0,0,-6.826,-6.8256,-6.8367,-6.8233,-6.822,-6.8314,-6.8313,-6.8312,-6.8061,-6.8052,-6.8043,-6.8034,-6.7985,-6.7991,-6.7997,-6.8216,0,0,-6.8016,-6.8019,0,0,0,0,0,0,0,0,-6.8251,-6.8255,-6.8366,-6.8366,-6.8365,-6.8314,-6.8313,-6.8312,-6.8059,-6.8052,-6.8044,-6.8038,-6.7986,-6.7991,-6.7996,0,0,0,0,0,0,0,0,0,0,0,0,0,0,0,-6.8366,-6.8366,0,-6.8313,-6.8313,-6.8312,-6.8058,-6.8052,-6.8046,-6.804,-6.7988,-6.7992,-6.7996,0,0,0,0,0,0,0,0,0,0,0,0,0,0,0,0,0,0,0,0,0,0,0,0,0,0,0,0,0,0,0,0,0,0,0,0,0,0,0,0,0,0,0,0,0,0,0,0,0,0,0,0,0,0,0,0,0,0,0,0,0,0,0,0,0,0,0,0,0]}],[{"header":{"parameterUnit":"kt","parameterCategory":2,"dx":1,"dy":1,"la1":30.253999710083008,"la2":30.299108505249023,"lo1":-89.0895004272461,"lo2":-89.04439544677734,"nx":28,"ny":28,"refTime":"2022-09-23T21:00:00:Z","depth":0,"parameterNumber":2,"parameterNumberName":"V-component_of_WINDS"},"data":[-4.1629,-4.1717,-4.175,-4.1864,-4.1913,-4.1997,-4.2037,-4.2092,-4.2145,-4.2247,-4.2312,-4.2354,-4.2419,-4.2503,-4.2574,-4.2591,-4.2618,-4.2623,-4.2642,-4.259,-4.2585,-4.258,-4.2561,-4.2629,-4.2629,-4.2691,-4.2692,-4.2692,-4.1581,-4.163,-4.1702,-4.1793,-4.1854,-4.1868,-4.1942,-4.1991,-4.2065,-4.2132,-4.2198,-4.2291,-4.2369,-4.2435,-4.2515,-4.2555,-4.2566,-4.2574,-4.2571,-4.258,-4.2526,-4.2505,-4.2563,-4.2563,-4.2563,-4.2563,-4.2563,-4.2563,-4.1501,-4.1553,-4.1629,-4.1707,-4.1763,-4.1824,-4.1879,-4.1931,-4.2001,-4.209,-4.2118,-4.2203,-4.2275,-4.239,-4.2437,-4.2503,-4.2501,-4.252,-4.2525,-4.2528,-4.2527,-4.2427,-4.2519,-4.2519,-4.2519,-4.2519,-4.2519,0,-4.1453,-4.1478,-4.155,-4.1632,-4.1691,-4.1758,-4.1825,-4.186,-4.1926,-4.1981,-4.2064,-4.2117,-4.2222,-4.2304,-4.2388,-4.2434,-4.2455,-4.2462,-4.2475,-4.2461,-4.2437,-4.2448,-4.2355,-4.2459,-4.2459,-4.2458,-4.2458,-4.2458,-4.1374,-4.1432,-4.153,-4.1575,-4.1621,-4.1695,-4.1746,-4.18,-4.1852,-4.1942,-4.1985,-4.2068,-4.2138,-4.2265,-4.2326,-4.2405,-4.2416,-4.2451,-4.2428,-4.2411,-4.2413,-4.2409,-4.2413,-4.2454,-4.2455,-4.2455,-4.2455,0,-4.1325,-4.1382,-4.1484,-4.1576,-4.1601,-4.1659,-4.1737,-4.1792,-4.1838,-4.1919,-4.1942,-4.2014,-4.2094,-4.2151,-4.2256,-4.2282,-4.2374,-4.2384,-4.2347,-4.2352,-4.2387,-4.2382,-4.2499,-4.2515,-4.2447,-4.2448,-4.2449,0,-4.1279,-4.1354,-4.1435,-4.1492,-4.1576,-4.163,-4.1712,-4.176,-4.1826,-4.1891,-4.1925,-4.1985,-4.2049,-4.2117,-4.2157,-4.2242,-4.2263,-4.2287,-4.2297,-4.2284,-4.228,-4.2311,-4.2307,-4.232,-4.2319,-4.2319,-4.2318,0,-4.1195,-4.1329,-4.1422,-4.1461,-4.1569,-4.161,-4.1657,-4.1733,-4.1783,-4.1857,-4.189,-4.1973,-4.2018,-4.2081,-4.2131,-4.2113,-4.2238,-4.2224,-4.2263,-4.2262,-4.2288,-4.2285,-4.2375,-4.2317,-4.2317,-4.2317,-4.2317,0,-4.1167,-4.1243,-4.137,-4.1459,-4.1492,-4.1554,-4.1639,-4.1706,-4.1783,-4.1813,-4.1872,-4.1902,-4.1985,-4.1965,-4.2078,-4.2039,-4.2081,-4.2113,-4.2117,-4.2127,-4.2104,-4.2144,-4.2226,-4.2235,-4.2136,-4.2135,-4.2133,0,-4.1053,-4.1199,-4.1247,-4.1367,-4.1441,-4.1475,-4.1544,-4.1613,-4.1659,-4.1728,-4.1778,-4.1857,-4.1856,-4.1888,-4.1937,-4.1992,-4.2042,-4.1987,-4.2083,-4.2085,-4.2058,-4.2134,-4.2132,-4.2202,-4.2115,-4.2117,-4.2118,0,-4.0973,-4.1106,-4.1125,-4.1172,-4.1274,-4.1338,-4.1418,-4.151,-4.1553,-4.1628,-4.1695,-4.181,-4.1812,-4.1867,-4.1902,-4.1949,-4.201,-4.1946,-4.1949,-4.1953,-4.2112,-4.2108,-4.212,-4.2022,-4.2024,-4.2026,-4.2104,0,-4.0912,-4.0995,-4.1048,-4.1155,-4.1214,-4.1294,-4.1358,-4.1411,-4.1438,-4.1485,-4.1587,-4.1662,-4.1755,-4.1785,-4.1814,-4.1906,-4.1899,-4.1902,-4.1887,-4.1937,-4.1964,-4.1976,-4.1841,-4.1841,-4.1841,-4.1841,0,0,-4.0788,-4.0908,-4.0961,-4.1043,-4.1096,-4.1132,-4.1211,-4.1267,-4.138,-4.1415,-4.1408,-4.158,-4.1642,-4.1758,-4.1779,-4.1819,-4.184,-4.1821,-4.1914,-4.1921,-4.1929,-4.1956,-4.1967,-4.1841,-4.1841,-4.1841,-4.1841,0,-4.0779,-4.0843,-4.0923,-4.0983,-4.1075,-4.1123,-4.1142,-4.124,-4.1274,-4.1377,-4.1404,-4.1474,-4.1613,-4.1672,-4.1721,-4.1809,-4.1826,-4.1833,-4.1857,-4.1911,-4.1919,-4.1926,-4.1954,-4.1964,-4.1841,-4.1841,-4.1841,0,-4.071,-4.0783,-4.0829,-4.0954,-4.1016,-4.1094,-4.1093,-4.1177,-4.1235,-4.1272,-4.1373,-4.1423,-4.1511,-4.1615,-4.1664,-4.1659,-4.1808,-4.1775,-4.1777,-4.1783,-4.1839,-4.1848,-4.1856,-4.1746,-4.1745,-4.1745,0,0,-4.0693,-4.0772,-4.0869,-4.0958,-4.0994,-4.1067,-4.1116,-4.1149,-4.1228,-4.1259,-4.1325,-4.14,-4.148,-4.1532,-4.1612,-4.1718,-4.174,-4.176,-4.1765,-4.1768,-4.1776,-4.1833,-4.1842,-4.1742,-4.1742,-4.1742,0,0,-4.0686,-4.0802,-4.0816,-4.0928,-4.1001,-4.1102,-4.1154,-4.1173,-4.1252,-4.125,-4.131,-4.1333,-4.1432,-4.1482,-4.1443,-4.1608,-4.1592,-4.1603,-4.1572,-4.1579,-4.1583,-4.1569,-4.1454,0,0,0,0,0,-4.0711,-4.0787,-4.0799,-4.0827,-4.0988,-4.1096,-4.1116,-4.1168,-4.1155,-4.1194,-4.1251,-4.1268,-4.1472,-4.144,-4.1467,-4.1509,-4.1713,-4.1718,-4.1723,-4.1709,-4.1715,-4.172,0,0,0,0,0,0,-4.0723,-4.0758,-4.0797,-4.09,-4.0937,-4.1093,-4.1082,-4.1098,-4.1152,-4.1153,-4.1256,-4.1271,-4.1317,-4.143,-4.1454,-4.1492,-4.1447,-4.1715,-4.172,-4.1724,-4.1711,-4.1716,-4.172,0,0,0,0,0,-4.0732,-4.076,-4.1005,-4.09,-4.0931,-4.1018,-4.108,-4.1093,-4.1135,-4.1227,-4.1242,-4.117,-4.1317,-4.1341,-4.1444,-4.148,-4.1431,-4.1439,-4.1718,-4.1721,-4.1725,-4.1714,0,0,0,0,0,0,-4.0739,-4.0773,-4.1012,-4.1024,-4.0876,-4.101,-4.1033,-4.1089,-4.1207,-4.1223,-4.1142,-4.1142,-4.1318,-4.1336,-4.1354,-4.1473,-4.1417,-4.1426,-4.1432,-4.1721,-4.1723,-4.1726,0,0,0,0,0,0,-4.0758,-4.0783,-4.1018,-4.0985,-4.0993,-4.1003,-4.1023,-4.112,-4.1207,-4.1116,-4.1119,-4.1141,-4.1291,-4.1333,-4.1347,-4.1496,-4.1408,-4.1416,-4.1422,-4.1425,-4.1723,-4.1725,0,0,0,0,0,0,-4.077,-4.0791,-4.0983,-4.0989,-4.0996,-4.1129,-4.1089,-4.125,-4.1179,-4.111,-4.1174,-4.1172,-4.1288,-4.1303,-4.1342,-4.1485,-4.1493,-4.1408,-4.1414,-4.1418,-4.142,0,0,0,0,0,0,0,-4.0779,-4.0627,-4.0944,-4.0992,-4.0998,-4.1131,-4.1134,-4.1137,-4.1179,-4.1177,-4.1175,-4.1173,-4.136,-4.1369,-4.1378,-4.1476,0,0,-4.1407,-4.1411,0,0,0,0,0,0,0,0,-4.0619,-4.0625,-4.0944,-4.0947,-4.0949,-4.1131,-4.1134,-4.1136,-4.1178,-4.1177,-4.1175,-4.1173,-4.1362,-4.137,-4.1377,0,0,0,0,0,0,0,0,0,0,0,0,0,0,0,-4.0945,-4.0947,0,-4.1131,-4.1134,-4.1136,-4.1178,-4.1177,-4.1175,-4.1174,-4.1364,-4.137,-4.1377,0,0,0,0,0,0,0,0,0,0,0,0,0,0,0,0,0,0,0,0,0,0,0,0,0,0,0,0,0,0,0,0,0,0,0,0,0,0,0,0,0,0,0,0,0,0,0,0,0,0,0,0,0,0,0,0,0,0,0,0,0,0,0,0,0,0,0,0,0]}]]]